Time,TemperatureF,DewpointF,PressureIn,WindDirection,WindDirectionDegrees,WindSpeedMPH,WindSpeedGustMPH,Humidity,HourlyPrecipIn,Conditions,Clouds,dailyrainin,SoftwareType,DateUTC
2013-11-15 00:02:00,33.1,25.0,30.35,SSW,193,0.0,1.0,72,0.00,,,0.00,weatherlink.com 1.10,2013-11-15 05:02:00,
2013-11-15 00:17:00,32.6,25.0,30.35,SSW,193,0.0,0.0,73,0.00,,,0.00,weatherlink.com 1.10,2013-11-15 05:17:00,
2013-11-15 00:32:00,32.1,25.0,30.34,SSW,193,0.0,1.0,74,0.00,,,0.00,weatherlink.com 1.10,2013-11-15 05:32:00,
2013-11-15 00:47:00,32.0,25.0,30.35,SSW,193,0.0,0.0,74,0.00,,,0.00,weatherlink.com 1.10,2013-11-15 05:47:00,
2013-11-15 01:02:00,31.9,25.0,30.35,SSW,193,0.0,0.0,77,0.00,,,0.00,weatherlink.com 1.10,2013-11-15 06:02:00,
2013-11-15 01:17:00,31.7,26.0,30.34,SSW,193,0.0,0.0,78,0.00,,,0.00,weatherlink.com 1.10,2013-11-15 06:17:00,
2013-11-15 01:32:00,31.1,25.0,30.34,SSW,193,0.0,0.0,78,0.00,,,0.00,weatherlink.com 1.10,2013-11-15 06:32:00,
2013-11-15 01:48:00,30.6,26.0,30.32,SSW,193,0.0,1.0,82,0.00,,,0.00,weatherlink.com 1.10,2013-11-15 06:48:00,
2013-11-15 02:03:00,32.6,27.0,30.33,SSW,193,1.0,1.0,80,0.00,,,0.00,weatherlink.com 1.10,2013-11-15 07:03:00,
2013-11-15 02:18:00,31.9,26.0,30.34,SSW,193,0.0,0.0,80,0.00,,,0.00,weatherlink.com 1.10,2013-11-15 07:18:00,
2013-11-15 02:33:00,31.1,26.0,30.34,SSW,193,0.0,0.0,82,0.00,,,0.00,weatherlink.com 1.10,2013-11-15 07:33:00,
2013-11-15 02:48:00,30.7,26.0,30.34,SSW,193,0.0,0.0,83,0.00,,,0.00,weatherlink.com 1.10,2013-11-15 07:48:00,
2013-11-15 03:03:00,31.0,26.0,30.32,SSW,193,0.0,0.0,83,0.00,,,0.00,weatherlink.com 1.10,2013-11-15 08:03:00,
2013-11-15 03:18:00,31.1,27.0,30.33,SSW,193,0.0,0.0,85,0.00,,,0.00,weatherlink.com 1.10,2013-11-15 08:18:00,
2013-11-15 03:33:00,30.4,27.0,30.32,SSW,193,0.0,0.0,88,0.00,,,0.00,weatherlink.com 1.10,2013-11-15 08:33:00,
2013-11-15 03:48:00,32.6,29.0,30.32,SSW,193,0.0,0.0,85,0.00,,,0.00,weatherlink.com 1.10,2013-11-15 08:48:00,
2013-11-15 04:03:00,32.6,28.0,30.32,SSW,193,0.0,1.0,83,0.00,,,0.00,weatherlink.com 1.10,2013-11-15 09:03:00,
2013-11-15 04:18:00,31.6,28.0,30.31,SSW,193,0.0,1.0,86,0.00,,,0.00,weatherlink.com 1.10,2013-11-15 09:18:00,
2013-11-15 04:33:00,31.0,28.0,30.32,SSW,193,0.0,1.0,88,0.00,,,0.00,weatherlink.com 1.10,2013-11-15 09:33:00,
2013-11-15 04:48:00,31.2,28.0,30.32,SSW,193,0.0,1.0,88,0.00,,,0.00,weatherlink.com 1.10,2013-11-15 09:48:00,
2013-11-15 05:03:00,31.6,28.0,30.32,SSW,193,0.0,0.0,87,0.00,,,0.00,weatherlink.com 1.10,2013-11-15 10:03:00,
2013-11-15 05:18:00,31.9,29.0,30.32,SSW,193,0.0,0.0,87,0.00,,,0.00,weatherlink.com 1.10,2013-11-15 10:18:00,
2013-11-15 05:33:00,32.4,29.0,30.32,SSW,193,0.0,0.0,86,0.00,,,0.00,weatherlink.com 1.10,2013-11-15 10:33:00,
2013-11-15 05:48:00,32.8,29.0,30.32,SSW,193,0.0,0.0,85,0.00,,,0.00,weatherlink.com 1.10,2013-11-15 10:48:00,
2013-11-15 06:03:00,32.5,29.0,30.32,SSW,193,0.0,0.0,86,0.00,,,0.00,weatherlink.com 1.10,2013-11-15 11:03:00,
2013-11-15 06:18:00,32.5,29.0,30.32,SSW,193,0.0,0.0,85,0.00,,,0.00,weatherlink.com 1.10,2013-11-15 11:18:00,
2013-11-15 06:33:00,33.2,29.0,30.32,SSW,193,0.0,0.0,84,0.00,,,0.00,weatherlink.com 1.10,2013-11-15 11:33:00,
2013-11-15 06:48:00,33.0,29.0,30.32,SSW,193,0.0,0.0,86,0.00,,,0.00,weatherlink.com 1.10,2013-11-15 11:48:00,
2013-11-15 07:03:00,33.2,30.0,30.32,SSW,193,0.0,0.0,86,0.00,,,0.00,weatherlink.com 1.10,2013-11-15 12:03:00,
2013-11-15 07:18:00,34.1,31.0,30.33,SSW,193,0.0,1.0,87,0.00,,,0.00,weatherlink.com 1.10,2013-11-15 12:18:00,
2013-11-15 07:33:00,34.2,31.0,30.33,SSW,193,0.0,0.0,88,0.00,,,0.00,weatherlink.com 1.10,2013-11-15 12:33:00,
2013-11-15 07:48:00,34.1,30.0,30.34,SSW,193,0.0,1.0,85,0.00,,,0.00,weatherlink.com 1.10,2013-11-15 12:48:00,
2013-11-15 08:03:00,35.3,31.0,30.35,SSW,193,1.0,1.0,84,0.00,,,0.00,weatherlink.com 1.10,2013-11-15 13:03:00,
2013-11-15 08:18:00,36.6,32.0,30.35,SSW,193,0.0,1.0,83,0.00,,,0.00,weatherlink.com 1.10,2013-11-15 13:18:00,
2013-11-15 08:33:00,37.8,32.0,30.35,SSW,193,0.0,0.0,81,0.00,,,0.00,weatherlink.com 1.10,2013-11-15 13:33:00,
2013-11-15 08:48:00,40.7,34.0,30.35,SSW,193,0.0,0.0,78,0.00,,,0.00,weatherlink.com 1.10,2013-11-15 13:48:00,
2013-11-15 09:03:00,44.0,36.0,30.34,SE,140,0.0,1.0,73,0.00,,,0.00,weatherlink.com 1.10,2013-11-15 14:03:00,
2013-11-15 09:18:00,45.2,36.0,30.34,NE,34,0.0,2.0,69,0.00,,,0.00,weatherlink.com 1.10,2013-11-15 14:18:00,
2013-11-15 09:33:00,47.2,35.0,30.34,NNW,337,1.0,3.0,62,0.00,,,0.00,weatherlink.com 1.10,2013-11-15 14:33:00,
2013-11-15 09:48:00,47.2,35.0,30.34,NW,321,1.0,2.0,64,0.00,,,0.00,weatherlink.com 1.10,2013-11-15 14:48:00,
2013-11-15 10:03:00,49.4,33.0,30.35,West,259,2.0,2.0,54,0.00,,,0.00,weatherlink.com 1.10,2013-11-15 15:03:00,
2013-11-15 10:19:00,51.7,33.0,30.34,WSW,250,0.0,2.0,50,0.00,,,0.00,weatherlink.com 1.10,2013-11-15 15:19:00,
2013-11-15 10:34:00,53.1,31.0,30.34,South,170,1.0,1.0,43,0.00,,,0.00,weatherlink.com 1.10,2013-11-15 15:34:00,
2013-11-15 10:49:00,53.8,30.0,30.33,SW,233,1.0,2.0,41,0.00,,,0.00,weatherlink.com 1.10,2013-11-15 15:49:00,
2013-11-15 11:04:00,54.7,31.0,30.33,WSW,244,1.0,2.0,41,0.00,,,0.00,weatherlink.com 1.10,2013-11-15 16:04:00,
2013-11-15 11:19:00,54.5,30.0,30.32,SW,235,0.0,2.0,40,0.00,,,0.00,weatherlink.com 1.10,2013-11-15 16:19:00,
2013-11-15 11:34:00,55.3,29.0,30.31,SW,226,1.0,2.0,37,0.00,,,0.00,weatherlink.com 1.10,2013-11-15 16:34:00,
2013-11-15 11:49:00,54.7,29.0,30.31,SSE,167,0.0,3.0,37,0.00,,,0.00,weatherlink.com 1.10,2013-11-15 16:49:00,
2013-11-15 12:04:00,54.5,30.0,30.30,South,178,0.0,2.0,39,0.00,,,0.00,weatherlink.com 1.10,2013-11-15 17:04:00,
2013-11-15 12:19:00,54.5,32.0,30.29,South,178,1.0,1.0,42,0.00,,,0.00,weatherlink.com 1.10,2013-11-15 17:19:00,
2013-11-15 12:34:00,54.5,33.0,30.28,South,178,0.0,1.0,44,0.00,,,0.00,weatherlink.com 1.10,2013-11-15 17:34:00,
2013-11-15 12:49:00,54.5,32.0,30.27,South,178,0.0,1.0,42,0.00,,,0.00,weatherlink.com 1.10,2013-11-15 17:49:00,
2013-11-15 13:04:00,55.0,32.0,30.27,South,178,0.0,1.0,42,0.00,,,0.00,weatherlink.com 1.10,2013-11-15 18:04:00,
2013-11-15 13:19:00,54.9,32.0,30.26,South,178,0.0,1.0,42,0.00,,,0.00,weatherlink.com 1.10,2013-11-15 18:19:00,
2013-11-15 13:34:00,55.2,33.0,30.25,South,178,0.0,1.0,43,0.00,,,0.00,weatherlink.com 1.10,2013-11-15 18:34:00,
2013-11-15 13:49:00,55.3,34.0,30.24,South,178,0.0,1.0,44,0.00,,,0.00,weatherlink.com 1.10,2013-11-15 18:49:00,
2013-11-15 14:04:00,56.1,34.0,30.23,NW,320,1.0,2.0,43,0.00,,,0.00,weatherlink.com 1.10,2013-11-15 19:04:00,
2013-11-15 14:19:00,57.1,36.0,30.22,NNE,15,1.0,3.0,45,0.00,,,0.00,weatherlink.com 1.10,2013-11-15 19:19:00,
2013-11-15 14:34:00,57.2,37.0,30.22,ENE,67,1.0,4.0,48,0.00,,,0.00,weatherlink.com 1.10,2013-11-15 19:34:00,
2013-11-15 14:49:00,57.1,37.0,30.22,NE,48,0.0,3.0,47,0.00,,,0.00,weatherlink.com 1.10,2013-11-15 19:49:00,
2013-11-15 15:04:00,57.3,37.0,30.22,North,5,1.0,2.0,47,0.00,,,0.00,weatherlink.com 1.10,2013-11-15 20:04:00,
2013-11-15 15:19:00,57.4,38.0,30.21,NNE,28,0.0,3.0,48,0.00,,,0.00,weatherlink.com 1.10,2013-11-15 20:19:00,
2013-11-15 15:34:00,57.2,39.0,30.21,NNE,28,0.0,2.0,51,0.00,,,0.00,weatherlink.com 1.10,2013-11-15 20:34:00,
2013-11-15 15:49:00,56.0,40.0,30.21,NNE,28,0.0,0.0,56,0.00,,,0.00,weatherlink.com 1.10,2013-11-15 20:49:00,
2013-11-15 16:04:00,55.9,41.0,30.20,NNE,28,0.0,1.0,58,0.00,,,0.00,weatherlink.com 1.10,2013-11-15 21:04:00,
2013-11-15 16:19:00,56.3,41.0,30.20,NNE,28,0.0,0.0,56,0.00,,,0.00,weatherlink.com 1.10,2013-11-15 21:19:00,
2013-11-15 16:34:00,55.9,41.0,30.21,NNE,28,0.0,0.0,58,0.00,,,0.00,weatherlink.com 1.10,2013-11-15 21:34:00,
2013-11-15 16:49:00,55.9,41.0,30.21,NNE,28,0.0,0.0,57,0.00,,,0.00,weatherlink.com 1.10,2013-11-15 21:49:00,
2013-11-15 17:04:00,55.2,41.0,30.21,NNE,28,0.0,1.0,59,0.00,,,0.00,weatherlink.com 1.10,2013-11-15 22:04:00,
2013-11-15 17:19:00,54.6,40.0,30.21,NNE,28,0.0,0.0,59,0.00,,,0.00,weatherlink.com 1.10,2013-11-15 22:19:00,
2013-11-15 17:34:00,54.4,41.0,30.21,NNE,22,1.0,2.0,61,0.00,,,0.00,weatherlink.com 1.10,2013-11-15 22:34:00,
2013-11-15 17:49:00,53.4,42.0,30.21,NNE,22,0.0,1.0,65,0.00,,,0.00,weatherlink.com 1.10,2013-11-15 22:49:00,
2013-11-15 18:04:00,53.3,42.0,30.21,NNE,22,0.0,0.0,65,0.00,,,0.00,weatherlink.com 1.10,2013-11-15 23:04:00,
2013-11-15 18:19:00,53.2,39.0,30.21,NNE,22,0.0,1.0,60,0.00,,,0.00,weatherlink.com 1.10,2013-11-15 23:19:00,
2013-11-15 18:34:00,53.3,41.0,30.22,NW,323,2.0,5.0,63,0.00,,,0.00,weatherlink.com 1.10,2013-11-15 23:34:00,
2013-11-15 18:49:00,52.4,42.0,30.22,NW,318,2.0,4.0,68,0.00,,,0.00,weatherlink.com 1.10,2013-11-15 23:49:00,
2013-11-15 19:04:00,51.1,43.0,30.22,NNE,22,1.0,3.0,74,0.00,,,0.00,weatherlink.com 1.10,2013-11-16 00:04:00,
2013-11-15 19:19:00,49.4,44.0,30.22,North,350,0.0,1.0,83,0.00,,,0.00,weatherlink.com 1.10,2013-11-16 00:19:00,
2013-11-15 19:34:00,49.3,44.0,30.22,North,11,0.0,3.0,82,0.00,,,0.00,weatherlink.com 1.10,2013-11-16 00:34:00,
2013-11-15 19:49:00,49.1,45.0,30.22,North,360,0.0,2.0,84,0.00,,,0.00,weatherlink.com 1.10,2013-11-16 00:49:00,
2013-11-15 20:05:00,48.1,45.0,30.22,NE,51,0.0,1.0,90,0.02,,,0.02,weatherlink.com 1.10,2013-11-16 01:05:00,
2013-11-15 20:20:00,47.4,46.0,30.22,NE,51,0.0,1.0,93,0.03,,,0.03,weatherlink.com 1.10,2013-11-16 01:20:00,
2013-11-15 20:35:00,47.6,46.0,30.23,NNE,20,2.0,3.0,94,0.04,,,0.04,weatherlink.com 1.10,2013-11-16 01:35:00,
2013-11-15 20:50:00,47.8,46.0,30.24,North,355,0.0,3.0,93,0.05,,,0.05,weatherlink.com 1.10,2013-11-16 01:50:00,
2013-11-15 21:05:00,47.6,46.0,30.26,NNW,336,1.0,2.0,94,0.07,,,0.09,weatherlink.com 1.10,2013-11-16 02:05:00,
2013-11-15 21:20:00,47.5,46.0,30.25,ENE,72,1.0,2.0,94,0.11,,,0.14,weatherlink.com 1.10,2013-11-16 02:20:00,
2013-11-15 21:35:00,47.4,46.0,30.24,NNE,24,1.0,3.0,94,0.14,,,0.18,weatherlink.com 1.10,2013-11-16 02:35:00,
2013-11-15 21:50:00,47.4,46.0,30.24,NNE,27,1.0,2.0,94,0.13,,,0.18,weatherlink.com 1.10,2013-11-16 02:50:00,
2013-11-15 22:05:00,47.4,46.0,30.24,ENE,76,0.0,2.0,94,0.10,,,0.19,weatherlink.com 1.10,2013-11-16 03:05:00,
2013-11-15 22:20:00,47.4,46.0,30.23,ENE,76,0.0,2.0,94,0.05,,,0.19,weatherlink.com 1.10,2013-11-16 03:20:00,
2013-11-15 22:35:00,47.3,46.0,30.23,ESE,108,0.0,2.0,94,0.01,,,0.19,weatherlink.com 1.10,2013-11-16 03:35:00,
2013-11-15 22:50:00,47.4,46.0,30.22,NE,44,1.0,2.0,94,0.01,,,0.19,weatherlink.com 1.10,2013-11-16 03:50:00,
2013-11-15 23:05:00,47.4,46.0,30.23,NNE,22,1.0,2.0,94,0.00,,,0.19,weatherlink.com 1.10,2013-11-16 04:05:00,
2013-11-15 23:20:00,47.5,46.0,30.23,NNE,22,0.0,1.0,94,0.00,,,0.19,weatherlink.com 1.10,2013-11-16 04:20:00,
2013-11-15 23:35:00,47.6,46.0,30.24,North,10,2.0,2.0,94,0.00,,,0.19,weatherlink.com 1.10,2013-11-16 04:35:00,
2013-11-15 23:50:00,47.7,46.0,30.24,NE,51,0.0,2.0,94,0.00,,,0.19,weatherlink.com 1.10,2013-11-16 04:50:00,